Mitchell, SD

6:40 AM CST on November 15, 2019 (GMT -0600)
Mitchell Municipal

Weather History for KMHE - October, 2019

Change the Weather History Date:

Tuesday, October 15, 2019

  Actual Average Record
Temperature  
Mean Temperature 42 °F 50 °F  
Max Temperature 48 °F 63 °F 93 °F (1958)
Min Temperature 39 °F 38 °F 24 °F (2018)
Degree Days  
Heating Degree Days 22 15  
Month to date heating degree days 188  
Since 1 July heating degree days 346  
Cooling Degree Days 0 0  
Month to date cooling degree days 7  
Year to date cooling degree days 824  
Moisture  
Dew Point 35 °F    
Average Humidity 73    
Maximum Humidity 86    
Minimum Humidity 61    
Precipitation  
Precipitation 0.00 in 0.06 in 1.15 in (1911)
Month to date precipitation 0.94  
Year to date precipitation 19.61  
Snow  
Snow 0.00 in - 0.00 in ()
Month to date snowfall  
Since 1 July snowfall  
Since 1 September snowfall  
Snow Depth -    
Sea Level Pressure  
Sea Level Pressure 30.10 in    
Wind  
Wind Speed 17 mph (NW)    
Max Wind Speed 25 mph    
Max Gust Speed 38 mph    
Visibility 10 miles    
Events      
T = Trace of Precipitation, MM = Missing Value Source: NWS Daily Summary

Daily Weather History Graph

Daily Weather History Graph

Search for Another Location

Airport or City:

Astronomy

Oct. 15, 2019 Rise Set
Actual Time 7:46 AM CDT 6:48 PM CDT
Civil Twilight 7:17 AM CDT 7:17 PM CDT
Nautical Twilight 6:43 AM CDT 7:51 PM CDT
Astronomical Twilight 6:10 AM CDT 8:24 PM CDT
Moon 8:07 PM CDT 9:19 AM CDT
Length of Visible Light 12h 00m
Length of Day
11h 02m
Full, 97% of the Moon is Illuminated
Oct 15
Full
Oct 21
Last Quarter
Oct 27
New
Nov 4
First Quarter
Nov 12
Full

Hourly Weather History & Observations

Time (CDT) Temp. Windchill Dew Point Humidity Pressure Visibility Wind Dir Wind Speed Gust Speed Precip Events Conditions
12:53 AM 41.0 °F 33.1 °F 36.0 °F 82% 29.85 in 10.0 mi NW 15.0 mph - N/A   Clear
1:53 AM 39.9 °F 32.1 °F 36.0 °F 86% 29.88 in 10.0 mi NW 13.8 mph - N/A   Clear
2:53 AM 41.0 °F 32.8 °F 36.0 °F 82% 29.91 in 10.0 mi WNW 16.1 mph - N/A   Clear
3:53 AM 42.1 °F 36.1 °F 37.0 °F 82% 29.93 in 10.0 mi NW 10.4 mph - N/A   Clear
4:53 AM 43.0 °F 37.2 °F 37.0 °F 80% 29.96 in 10.0 mi West 10.4 mph 19.6 mph N/A   Clear
5:53 AM 44.1 °F 35.4 °F 37.0 °F 76% 29.99 in 10.0 mi NW 21.9 mph 32.2 mph N/A   Mostly Cloudy
6:53 AM 41.0 °F 32.8 °F 34.0 °F 76% 30.03 in 10.0 mi NW 16.1 mph - N/A   Clear
7:53 AM 39.9 °F 31.1 °F 32.0 °F 73% 30.05 in 10.0 mi NW 17.3 mph 25.3 mph N/A   Clear
8:53 AM 41.0 °F 33.1 °F 33.1 °F 73% 30.06 in 10.0 mi WNW 15.0 mph - N/A   Clear
9:53 AM 45.0 °F 36.4 °F 35.1 °F 68% 30.07 in 10.0 mi WNW 23.0 mph 34.5 mph N/A   Partly Cloudy
10:53 AM 45.0 °F 36.0 °F 35.1 °F 68% 30.09 in 10.0 mi WNW 25.3 mph 32.2 mph N/A   Overcast
11:53 AM 46.0 °F 37.4 °F 34.0 °F 63% 30.10 in 10.0 mi NW 25.3 mph 38.0 mph N/A   Overcast
12:53 PM 46.0 °F 37.6 °F 33.1 °F 61% 30.11 in 10.0 mi NW 24.2 mph 34.5 mph N/A   Overcast
1:53 PM 46.0 °F 37.8 °F 33.1 °F 61% 30.12 in 10.0 mi NW 23.0 mph 35.7 mph N/A   Overcast
2:53 PM 46.0 °F 37.8 °F 33.1 °F 61% 30.12 in 10.0 mi NNW 23.0 mph 33.4 mph N/A   Overcast
3:41 PM 46.0 °F 37.6 °F 34.0 °F 63% 30.10 in 10.0 mi NW 24.2 mph 35.7 mph N/A   Overcast
3:53 PM 46.0 °F 38.0 °F 34.0 °F 63% 30.13 in 10.0 mi NW 21.9 mph 32.2 mph N/A   Overcast
4:53 PM 44.1 °F 35.4 °F 35.1 °F 71% 30.16 in 10.0 mi NNW 21.9 mph 31.1 mph N/A   Overcast
5:53 PM 44.1 °F 35.7 °F 36.0 °F 73% 30.19 in 10.0 mi NNW 20.7 mph 26.5 mph N/A   Overcast
6:53 PM 43.0 °F 34.5 °F 36.0 °F 76% 30.20 in 10.0 mi NNW 19.6 mph 27.6 mph N/A   Overcast
7:53 PM 43.0 °F 37.2 °F 36.0 °F 76% 30.23 in 10.0 mi NNW 10.4 mph - N/A   Overcast
8:04 PM 43.0 °F 37.2 °F 36.0 °F 76% 30.21 in 10.0 mi NNW 10.4 mph - N/A   Overcast
8:53 PM 43.0 °F 37.2 °F 36.0 °F 76% 30.25 in 10.0 mi NNW 10.4 mph - N/A   Overcast
9:53 PM 43.0 °F 37.2 °F 35.1 °F 74% 30.26 in 10.0 mi NW 10.4 mph - N/A   Overcast
10:53 PM 43.0 °F 36.8 °F 35.1 °F 74% 30.27 in 10.0 mi NNW 11.5 mph - N/A   Overcast
11:53 PM 42.1 °F 36.1 °F 35.1 °F 76% 30.26 in 10.0 mi NNW 10.4 mph - N/A   Overcast